This demonstration page uses our WeatherBlox Daily Observations layout. Learn more.

Left ArrowRight Arrow

44.8408, -93.29828

Hourly Observations for May 17, 2015

Temp ( °F °C ) Dew Point ( °F °C ) Humidity (%) Winds ( mph kmh ) Pressure ( in mb ) Visibility ( mi km ) Precip ( " mm )
12:53 am 00:53 Mostly Cloudy 68 20 65 18.3 90 90 ESE 12 19 29.78 1008 8 13 0.00 0.00
1:53 am 01:53 Mostly Cloudy 68 20 65 18.3 90 90 ESE 9 15 29.73 1007 7 11 0.00 0.00
2:53 am 02:53 Mostly Cloudy 68 20 65 18.3 90 90 ESE 15 24 29.73 1007 9 14 0.00 0.00
3:53 am 03:53 Cloudy with Light Rain 69 20.6 65 18.3 87 87 SE 15 24 29.73 1007 10 16 0.00 0.03
4:53 am 04:53 Cloudy 68 20 65 18.3 90 90 ESE 13 20 29.70 1006 9 14 0.00 0.03
5:23 am 05:23 Cloudy 69 20.6 64 17.8 84 84 SE 12 19 29.68 1005 10 16 0.00 0.00
5:53 am 05:53 Cloudy 68 20 65 18.3 90 90 ESE 15 24 29.67 1005 9 14 0.00 0.00
6:12 am 06:12 Cloudy 70 21 64 18 83 83 SE 16 26 29.65 1004 8 13 0.00 0.00
6:53 am 06:53 Cloudy with Light Rain 69 20.6 65 18.3 87 87 ESE 22 35 29.63 1003 6 10 0.00 0.03
7:18 am 07:18 Cloudy with Light Rain 68 20 64 17.8 87 87 ESE 24 39 29.59 1002 7 11 0.00 0.03
7:53 am 07:53 Cloudy with Light Rain 68 20 65 18.3 90 90 ESE 23 37 29.59 1002 4 6 0.00 0.03
8:53 am 08:53 Cloudy 69 20.6 65 18.3 87 87 SE 18 30 29.61 1003 8 13 0.00 0.03
9:29 am 09:29 Cloudy with Light Rain 70 21.1 64 17.8 82 82 S 15 24 29.59 1002 6 10 0.00 0.03
9:53 am 09:53 Cloudy with Light Rain 69 20.6 62 16.7 78 78 S 13 20 29.62 1003 8 13 0.00 0.03
10:53 am 10:53 Mostly Cloudy with Light Rain 68 20 61 16.1 78 78 SSW 13 20 29.61 1003 10 16 0.08 2.03
11:53 am 11:53 Mostly Cloudy 73 22.8 59 15 62 62 SSE 22 35 29.62 1003 10 16 0.00 0.03
12:53 pm 12:53 Mostly Cloudy 73 22.8 59 15 62 62 S 15 24 29.62 1003 10 16 0.00 0.00
1:53 pm 13:53 Mostly Cloudy 73 22.8 59 15 62 62 S 21 33 29.60 1002 10 16 0.00 0.00
2:53 pm 14:53 Mostly Cloudy 73 22.8 60 15.6 64 64 S 17 28 29.57 1002 10 16 0.00 0.00
3:51 pm 15:51 Cloudy with Nearby Thunderstorms 72 22 61 16 69 69 S 14 22 29.53 1000 10 16 0.00 0.03
3:53 pm 15:53 Cloudy with Nearby Thunderstorms 71 21.7 61 16.1 71 71 S 17 28 29.56 1001 10 16 0.00 0.03
4:45 pm 16:45 Mostly Cloudy 67 19.4 59 15 76 76 SSE 13 20 29.53 1000 10 16 0.00 0.03
4:53 pm 16:53 Mostly Cloudy 66 18.9 58 14.4 75 75 SSE 13 20 29.55 1001 10 16 0.00 0.03
5:53 pm 17:53 Mostly Cloudy 67 19.4 58 14.4 73 73 S 13 20 29.54 1000 10 16 0.00 0.00
6:53 pm 18:53 Mostly Cloudy 67 19.4 58 14.4 73 73 S 15 24 29.54 1000 10 16 0.00 0.00
7:53 pm 19:53 Mostly Cloudy 68 20 57 13.9 68 68 S 16 26 29.54 1001 10 16 0.00 0.00
8:53 pm 20:53 Cloudy 62 16.7 54 12.2 75 75 SW 23 37 29.60 1003 10 16 0.00 0.03
9:03 pm 21:03 Cloudy 61 16 50 10 68 68 SW 38 61 29.62 1003 10 16 0.00 0.00
9:29 pm 21:29 Cloudy 57 13.9 46 7.8 67 67 WSW 33 54 29.65 1004 10 16 0.00 0.00
9:53 pm 21:53 Cloudy 56 13.3 44 6.7 65 65 SW 25 41 29.69 1005 10 16 0.00 0.00
10:53 pm 22:53 Cloudy 51 10.6 43 6.1 74 74 SW 25 41 29.73 1007 10 16 0.00 0.00
11:53 pm 23:53 Mostly Cloudy 50 10 39 3.9 66 66 WSW 25 41 29.75 1008 10 16 0.00 0.00

Powered by AerisWeather